Sunshine Coast Airport Observation History
Time Wind Speed Temp Pressure Rel. Hum Rain
01/04:30am WSW 5-6 kts 21.0°c 1015.7 hPa n/a 0.2mm
01/04:00am SW 4-5 kts 21.0°c 1015.4 hPa n/a 0.2mm
01/03:30am WSW 6-7 kts 20.8°c 1015.3 hPa n/a 0.2mm
01/03:00am W 1-4 kts 20.2°c 1015.5 hPa n/a 0.2mm
01/02:30am WSW 5-6 kts 20.4°c 1015.5 hPa n/a 0.2mm
01/02:00am W 4-5 kts 20.1°c 1015.6 hPa n/a 0.0mm
01/01:30am W 4-5 kts 20.3°c 1015.6 hPa n/a 0.0mm
01/01:00am WNW 6 kts 20.4°c 1015.6 hPa n/a 0.0mm
01/12:30am WNW 3 kts 20.7°c 1015.6 hPa n/a 0.0mm
01/12:00am WNW 4-5 kts 20.7°c 1015.8 hPa n/a 0.0mm
Time Wind Speed Temp Pressure Rel. Hum Rain
31/11:30pm W 4 kts 21.0°c 1016.0 hPa n/a 0.0mm
31/11:00pm W 3-4 kts 21.3°c 1016.2 hPa n/a 0.0mm
31/10:30pm WSW 3-4 kts 21.5°c 1016.3 hPa n/a 0.0mm
31/10:00pm NNW 3-5 kts 21.9°c 1016.3 hPa n/a 0.0mm
31/09:30pm NNW 3-4 kts 21.8°c 1016.2 hPa n/a 0.0mm
31/09:00pm NNW 3-4 kts 22.4°c 1016.2 hPa n/a 0.0mm
31/08:30pm NNW 3 kts 22.6°c 1016.1 hPa n/a 0.0mm
31/08:00pm NNW 2-3 kts 22.7°c 1015.6 hPa n/a 0.0mm
31/07:30pm NNW 4-5 kts 22.4°c 1015.4 hPa n/a 0.0mm
31/07:00pm NNW 5-7 kts 22.7°c 1015.1 hPa n/a 0.0mm
31/06:30pm NNE 6-8 kts 23.7°c 1014.7 hPa n/a 0.0mm
31/06:00pm N 7-8 kts 24.0°c 1014.2 hPa n/a 0.0mm
31/05:30pm N 6-9 kts 24.1°c 1014.0 hPa n/a 0.0mm
31/05:00pm N 7-9 kts 24.9°c 1013.9 hPa n/a 0.0mm
31/04:30pm NNE 9-12 kts 26.5°c 1013.1 hPa n/a 0.0mm
31/04:00pm N 5-9 kts 26.2°c 1013.1 hPa n/a 0.0mm
31/03:30pm NNE 8-11 kts 25.0°c 1013.1 hPa n/a 0.0mm
31/03:00pm NNE 11-15 kts 25.5°c 1012.8 hPa n/a 0.0mm
31/02:30pm NNE 9-11 kts 26.6°c 1013.0 hPa n/a 0.0mm
31/02:00pm NNE 7-11 kts 25.6°c 1013.1 hPa n/a 0.0mm
31/01:30pm NE 8-10 kts 25.7°c 1013.4 hPa n/a 0.0mm
31/01:00pm NE 10-13 kts 27.5°c 1013.7 hPa n/a 0.0mm
31/12:30pm NE 13-15 kts 27.6°c 1013.9 hPa n/a 0.0mm
31/12:00pm NE 12-15 kts 27.2°c 1014.5 hPa n/a 0.0mm
31/11:30am NE 7-10 kts 27.6°c 1015.2 hPa n/a 0.0mm
31/11:00am ENE 9-14 kts 27.5°c 1015.6 hPa n/a 0.0mm
31/10:30am NNW 3-6 kts 27.5°c 1015.7 hPa n/a 0.0mm
31/10:00am NNW 4-7 kts 26.9°c 1015.8 hPa n/a 0.0mm
31/09:30am NW 8-11 kts 26.8°c 1016.1 hPa n/a 0.0mm
31/09:00am WNW 7-10 kts 26.1°c 1016.1 hPa n/a 0.0mm
31/08:30am W 8-11 kts 24.5°c 1016.1 hPa n/a 0.0mm
31/08:00am W 5-6 kts 22.5°c 1015.7 hPa n/a 0.0mm
31/07:30am WNW 3-5 kts 21.4°c 1015.4 hPa n/a 0.0mm
31/07:00am WNW 4-5 kts 20.4°c 1015.0 hPa n/a 0.0mm
31/06:30am WNW 4-5 kts 19.5°c 1015.1 hPa n/a 0.0mm
31/06:00am WNW 6-7 kts 19.5°c 1015.1 hPa n/a 0.0mm
31/05:30am NW 6-7 kts 19.3°c 1014.7 hPa n/a 0.0mm
31/05:00am WNW 5-6 kts 19.1°c 1014.7 hPa n/a 0.0mm
31/04:30am WNW 5-7 kts 19.2°c 1014.6 hPa n/a 0.0mm
31/04:00am WNW 5-6 kts 18.9°c 1014.5 hPa n/a 0.0mm
31/03:30am WNW 4-5 kts 19.3°c 1014.6 hPa n/a 0.0mm
31/03:00am WNW 4-5 kts 19.3°c 1014.5 hPa n/a 0.0mm
31/02:30am WNW 4-5 kts 19.6°c 1014.6 hPa n/a 0.0mm
31/02:00am WNW 5-6 kts 19.6°c 1014.7 hPa n/a 0.0mm
31/01:30am WNW 6-7 kts 19.8°c 1014.9 hPa n/a 0.0mm
31/01:00am WNW 6 kts 19.9°c 1015.0 hPa n/a 0.0mm
31/12:30am WNW 5-6 kts 20.1°c 1015.4 hPa n/a 0.0mm
31/12:00am WNW 6 kts 20.3°c 1015.6 hPa n/a 0.0mm
Time Wind Speed Temp Pressure Rel. Hum Rain
30/11:30pm WNW 6-7 kts 20.5°c 1015.8 hPa n/a 0.0mm
30/11:00pm NW 6-7 kts 20.7°c 1015.7 hPa n/a 0.0mm
30/10:30pm WNW 5 kts 20.9°c 1015.9 hPa n/a 0.0mm
30/10:00pm WNW 3-4 kts 21.3°c 1016.0 hPa n/a 0.0mm
30/09:30pm WNW 3 kts 21.5°c 1016.0 hPa n/a 0.0mm
30/09:00pm WNW 4-5 kts 21.5°c 1016.1 hPa n/a 0.0mm
30/08:30pm NW 5-6 kts 21.8°c 1015.9 hPa n/a 0.0mm
30/08:00pm NNW 5-6 kts 22.5°c 1015.7 hPa n/a 0.0mm
30/07:30pm NNE 7-11 kts 24.0°c 1015.7 hPa n/a 0.0mm
30/07:00pm NNE 8-11 kts 24.2°c 1015.5 hPa n/a 0.0mm
30/06:30pm NE 9-11 kts 24.5°c 1015.2 hPa n/a 0.0mm
30/06:00pm NNE 8-10 kts 24.5°c 1015.0 hPa n/a 0.0mm
30/05:30pm NE 8-10 kts 24.9°c 1014.8 hPa n/a 0.0mm
30/05:00pm NE 8-10 kts 25.2°c 1014.6 hPa n/a 0.0mm
30/04:30pm ENE 8-11 kts 25.9°c 1014.4 hPa n/a 0.0mm
30/04:00pm ENE 9-11 kts 26.3°c 1014.4 hPa n/a 0.0mm
30/03:30pm ENE 8-9 kts 25.7°c 1014.4 hPa n/a 0.0mm
30/03:00pm ENE 9-11 kts 25.4°c 1014.5 hPa n/a 0.0mm
30/02:30pm E 8-10 kts 26.1°c 1014.5 hPa n/a 0.0mm
30/02:00pm ENE 9-11 kts 26.8°c 1014.5 hPa n/a 0.0mm
30/01:30pm E 9-12 kts 26.6°c 1014.7 hPa n/a 0.0mm
30/01:00pm E 8-11 kts 26.7°c 1015.0 hPa 100% 0.0mm
30/12:30pm E 8-11 kts 26.5°c 1015.4 hPa 100% 0.0mm
30/12:00pm E 8-10 kts 26.4°c 1015.8 hPa 100% 0.0mm
30/11:30am E 7-9 kts 26.4°c 1016.3 hPa 100% 0.0mm
30/11:00am ESE 7-9 kts 26.4°c 1016.6 hPa 100% 0.0mm
30/10:30am ESE 6-8 kts 26.1°c 1016.9 hPa 100% 0.0mm
30/10:00am ESE 7-9 kts 25.8°c 1016.9 hPa 100% 0.0mm
30/09:30am ESE 5-7 kts 26.0°c 1016.9 hPa 100% 0.0mm
30/09:00am SSW 5-8 kts 24.7°c 1017.0 hPa 100% 0.2mm
30/08:30am S 6-9 kts 24.5°c 1017.0 hPa 100% 0.2mm
30/08:00am SSW 5-6 kts 22.5°c 1017.1 hPa 100% 0.2mm
30/07:30am WSW 4-5 kts 21.0°c 1016.7 hPa 100% 0.2mm
30/07:00am WSW 2-4 kts 20.2°c 1016.5 hPa 100% 0.2mm
30/06:30am WSW 2-3 kts 19.2°c 1016.0 hPa 100% 0.2mm
30/06:00am WSW 3-5 kts 18.9°c 1015.8 hPa 100% 0.2mm
30/05:30am WSW 4 kts 18.9°c 1015.8 hPa 100% 0.2mm
30/05:00am WSW 3-4 kts 18.9°c 1015.6 hPa 100% 0.2mm
30/04:30am WSW 4 kts 18.9°c 1015.5 hPa 100% 0.2mm
30/04:00am WSW 3-5 kts 19.4°c 1015.7 hPa 100% 0.2mm
30/03:30am WSW 3-4 kts 19.5°c 1015.9 hPa 100% 0.2mm
30/03:00am WSW 3-4 kts 19.8°c 1016.0 hPa 100% 0.2mm
30/02:30am SW 3-4 kts 19.7°c 1016.3 hPa 100% 0.2mm
30/02:00am WSW 3-5 kts 20.1°c 1016.3 hPa 100% 0.2mm
30/01:30am W 2-5 kts 20.2°c 1016.8 hPa 100% 0.2mm
30/01:00am WSW 3-5 kts 20.6°c 1017.1 hPa 100% 0.2mm
30/12:30am SW 4-5 kts 20.9°c 1017.3 hPa 100% 0.2mm
30/12:00am SW 4-5 kts 21.2°c 1017.4 hPa 100% 0.2mm